Location: North Evanston
(42.0634°N, 87.6976°W)
Time: 11:25:24
(UTC+00:00)

Vanguard 2 Rocket - Pass Details

Date: 10 May 2026
Orbit: 553 x 3286 km, 32.9° (Epoch: 11 June)

Event Time Altitude Azimuth Distance (km) Brightness Sun altitude
Rises 18:31:25 0° 242° (WSW) 6,045 11.4 63.9°
Reaches altitude 10° 18:35:00 10° 239° (WSW) 5,326 11.3 63.7°
Maximum altitude 18:51:48 59° 165° (SSE) 3,558 11.4 62.1°
Drops below altitude 10° 19:10:55 10° 93° (E) 5,977 11.0 59.9°
Sets 19:15:13 0° 90° (E) 6,792 11.1 59.3°
